{"data":{"norad_id":55276,"epoch":"2026-05-24T20:15:49.262688Z","epoch_age_seconds":98781,"freshness":"FRESH","line1":"1 55276U 23010H   26144.84432017 -.00002216  00000+0 -17797-3 0  9993","line2":"2 55276  69.9995 192.5545 0003829 266.4545  93.6176 14.98328074184673","mean_motion":14.98328074,"eccentricity":0.0003829,"inclination_deg":69.9995,"raan_deg":192.5545,"arg_perigee_deg":266.4545,"mean_anomaly_deg":93.6176,"bstar":-0.00017797,"rev_number":18467,"period_min":96.107122664779,"perigee_km":569.40061580842,"apogee_km":574.72307808542,"semimajor_km":6950.1988469469,"source":"CELESTRAK","updated_at":"2026-05-25T13:38:17.731984Z"}}